Tracking 21470 objects as of 23-Sep-2020
HD Live streaming from Space Station
objects crossing your sky now

SL-8 DEB

Track SL-8 DEB now!
10-day predictions


NORAD ID: 21187
Int'l Code: 1991-009BA
Perigee: 1,504.3 km
Apogee: 1,789.3 km
Inclination: 74.2 °
Period: 119.1 minutes
Semi major axis: 8017 km
RCS: 0.05 m2 (small)
Launch date: February 12, 1991
Source: Commonwealth of Independent States (former USSR) (CIS)
Launch site: PLESETSK MISSILE AND SPACE COMPLEX (PKMTR)

Note: This is SATELLITE DEBRIS
aabbcc
Your satellite tracking list
Your tracking list is empty




NASA's NSSDC Master Catalog

Two Line Element Set (TLE):
1 21187U 91009BA  20266.71308353  .00000341  00000-0  37258-2 0  9999
2 21187  74.2492  18.9995 0177697 126.1852 349.4383 12.09261636304414
Source of the keplerian elements: AFSPC